Lake Wenatchee to Mission Ridge
Mission Ridge Ski Area
Latest observation 08/31 18:00 PDT
| Time (PDT) | Temp °F 6730' | Temp °F 5160' | Temp °F 4610' | RH % 6730' | RH % 5160' | Min mph 6730' | Spd mph 6730' | Gust mph 6730' | Dir ° 6730' | Pcp1 5160' | PcpSum in 5160' | 24Sno 5160' | SnoHt 5160' |
|---|---|---|---|---|---|---|---|---|---|---|---|---|---|
| 08/31 18:00 | 55 | – | 62 | 48 | – | 0 | 2 | 12 | 307 | – | – | – | – |
| 08/31 17:00 | 57 | – | 65 | 44 | – | 0 | 3 | 11 | 277 | – | – | – | – |
| 08/31 16:00 | 58 | – | 64 | 42 | – | 3 | 8 | 17 | 241 | – | – | – | – |
| 08/31 15:00 | 58 | – | 63 | 44 | – | 1 | 8 | 16 | 238 | – | – | – | – |
| 08/31 14:00 | 57 | – | 61 | 49 | – | 1 | 11 | 20 | 233 | – | – | – | – |
| 08/31 13:00 | 55 | – | 60 | 52 | – | 4 | 11 | 20 | 234 | – | – | – | – |
| 08/31 12:00 | 52 | – | 58 | 57 | – | 4 | 10 | 17 | 232 | – | – | – | – |
| 08/31 11:00 | 51 | – | 56 | 58 | – | 5 | 9 | 16 | 234 | – | – | – | – |
| 08/31 10:00 | 49 | – | 55 | 60 | – | 5 | 9 | 15 | 223 | – | – | – | – |
| 08/31 09:00 | 48 | – | 57 | 56 | – | 6 | 10 | 13 | 215 | – | – | – | – |
| 08/31 08:00 | 47 | – | 50 | 58 | – | 7 | 10 | 13 | 207 | – | – | – | – |
| 08/31 07:00 | 47 | – | 47 | 62 | – | 9 | 12 | 16 | 205 | – | – | – | – |
| 08/31 06:00 | 47 | – | 47 | 69 | – | 8 | 10 | 14 | 210 | – | – | – | – |
| 08/31 05:00 | 47 | – | 47 | 69 | – | 7 | 9 | 12 | 220 | – | – | – | – |
| 08/31 04:00 | 47 | – | 49 | 70 | – | 6 | 8 | 10 | 227 | – | – | – | – |
| 08/31 03:00 | 49 | – | 48 | 65 | – | 5 | 7 | 11 | 229 | – | – | – | – |
| 08/31 02:00 | 48 | – | 49 | 66 | – | 4 | 6 | 11 | 238 | – | – | – | – |
| 08/31 01:00 | 49 | – | 50 | 65 | – | 5 | 7 | 9 | 227 | – | – | – | – |
| 08/31 00:00 | 49 | – | 49 | 64 | – | 5 | 8 | 12 | 223 | – | – | – | – |
| 08/30 23:00 | 48 | – | 49 | 64 | – | 5 | 8 | 12 | 222 | – | – | – | – |
| 08/30 22:00 | 48 | – | 50 | 69 | – | 4 | 7 | 10 | 221 | – | – | – | – |
| 08/30 21:00 | 49 | – | 51 | 65 | – | 0 | 3 | 8 | 239 | – | – | – | – |
| 08/30 20:00 | 49 | – | 53 | 64 | – | 0 | 1 | 5 | 316 | – | – | – | – |
| 08/30 19:00 | 49 | – | 55 | 62 | – | 0 | 5 | 10 | 1 | – | – | – | – |

